Weather History for White Plains, NY

Change the Weather History Date:

Tuesday, March 12, 2013

  Actual Average Record
Temperature  
Mean Temperature 48 °F -  
Max Temperature 54 °F 42 °F 69 °F (2012)
Min Temperature 42 °F 27 °F 12 °F (1984)
Degree Days  
Heating Degree Days 16    
Moisture  
Dew Point 46 °F    
Average Humidity 88    
Maximum Humidity 96    
Minimum Humidity 73    
Precipitation  
Precipitation 1.16 in - - ()
Sea Level Pressure  
Sea Level Pressure 29.86 in    
Wind  
Wind Speed 10 mph (South)    
Max Wind Speed 18 mph    
Max Gust Speed 32 mph    
Visibility 5 miles    
Events Rain    
Averages and records for this station are not official NWS values.
T = Trace of Precipitation, MM = Missing Value Source: NWS Daily Summary

Daily Weather History Graph

Daily Weather History Graph

Search for Another Location

Airport:

Trip Planner

Search our weather history database for the weather conditions in past years. The results will help you decide how hot, cold, wet, or windy it might be!

Date:

Astronomy

Mar. 12, 2013 Rise Set
Actual Time 7:11 AM EDT 6:58 PM EDT
Civil Twilight 6:43 AM EDT 7:25 PM EDT
Nautical Twilight 6:11 AM EDT 7:57 PM EDT
Astronomical Twilight 5:39 AM EDT 8:30 PM EDT
Moon 7:15 AM EDT (3/12) 8:11 PM EDT (3/12)
Length of Visible Light 12h 42m
Length of Day
11h 47m
New Moon, 1% of the Moon is Illuminated
Mar 12
New Moon
Mar 19
First Quarter
Mar 27
Full
Apr 3
Last Quarter
Apr 10
New

Hourly Weather History & Observations

Time (EDT) Temp. Windchill Dew Point Humidity Pressure Visibility Wind Dir Wind Speed Gust Speed Precip Events Conditions
12:56 AM 48.0 °F - 46.0 °F 93% 30.08 in 8.0 mi South 6.9 mph - N/A   Overcast
1:56 AM 48.0 °F - 45.0 °F 89% 30.04 in 9.0 mi SSE 8.1 mph - N/A   Partly Cloudy
2:56 AM 50.0 °F - 46.0 °F 86% 30.02 in 10.0 mi South 6.9 mph - N/A   Scattered Clouds
3:56 AM 50.0 °F - 45.0 °F 83% 30.00 in 10.0 mi South 10.4 mph - N/A   Mostly Cloudy
4:56 AM 51.1 °F - 44.1 °F 77% 30.00 in 10.0 mi South 10.4 mph 19.6 mph 0.00 in Rain Light Rain
5:24 AM 50.0 °F - 44.6 °F 82% 29.98 in 7.0 mi South 8.1 mph - 0.01 in Rain Light Rain
5:35 AM 48.2 °F - 44.6 °F 87% 29.98 in 6.0 mi SSE 6.9 mph - 0.02 in Rain Light Rain
5:56 AM 48.9 °F - 45.0 °F 86% 29.98 in 7.0 mi SE 8.1 mph - 0.03 in Rain Light Rain
6:56 AM 48.9 °F - 46.0 °F 90% 29.97 in 6.0 mi SSE 6.9 mph - 0.02 in Rain Light Rain
7:56 AM 48.2 °F - 46.4 °F 93% 29.95 in 4.0 mi SSE 6.9 mph - N/A Rain Light Rain
8:56 AM 50.0 °F - 46.9 °F 89% 29.96 in 4.0 mi South 6.9 mph - 0.04 in Rain Light Rain
9:56 AM 50.0 °F - 48.0 °F 93% 29.94 in 4.0 mi SSE 8.1 mph - 0.02 in Rain Light Rain
10:56 AM 51.1 °F - 48.9 °F 92% 29.91 in 4.0 mi SSE 10.4 mph - 0.04 in Rain Light Rain
11:21 AM 51.8 °F - 48.2 °F 88% 29.89 in 2.5 mi SSE 10.4 mph - 0.04 in Rain Rain
11:56 AM 51.1 °F - 48.9 °F 92% 29.87 in 2.0 mi SSE 12.7 mph 19.6 mph 0.11 in Rain Rain
12:56 PM 52.0 °F - 50.0 °F 93% 29.84 in 1.5 mi SSE 15.0 mph - 0.13 in Rain Rain
1:56 PM 52.0 °F - 50.0 °F 93% 29.80 in 2.5 mi SSE 16.1 mph 26.5 mph 0.13 in Rain Rain
2:56 PM 52.0 °F - 50.0 °F 93% 29.74 in 2.5 mi SSE 18.4 mph 27.6 mph 0.18 in Rain Rain
3:56 PM 53.1 °F - 51.1 °F 93% 29.70 in 2.5 mi SSE 15.0 mph 26.5 mph 0.18 in Rain Heavy Rain
4:03 PM 53.6 °F - 51.8 °F 94% 29.69 in 1.0 mi South 17.3 mph 27.6 mph 0.04 in Rain Heavy Rain
4:56 PM 54.0 °F - 52.0 °F 93% 29.68 in 4.0 mi South 18.4 mph 32.2 mph 0.25 in Rain Light Rain
5:25 PM 51.8 °F - 50.0 °F 94% 29.67 in 1.0 mi South 16.1 mph 29.9 mph 0.00 in   Overcast
5:56 PM 51.1 °F - 50.0 °F 96% 29.69 in 1.0 mi South 10.4 mph 19.6 mph 0.00 in Rain Light Rain
6:56 PM 51.1 °F - 50.0 °F 96% 29.72 in 0.8 mi SSW 3.5 mph - 0.01 in   Overcast
7:19 PM 51.8 °F - 48.2 °F 88% 29.73 in 5.0 mi WNW 12.7 mph 21.9 mph 0.02 in   Overcast
7:56 PM 50.0 °F - 42.1 °F 74% 29.76 in 5.0 mi WNW 12.7 mph 23.0 mph 0.02 in   Haze
8:56 PM 46.0 °F 39.6 °F 37.9 °F 73% 29.79 in 10.0 mi WNW 15.0 mph 23.0 mph N/A   Mostly Cloudy
9:56 PM 44.1 °F 36.2 °F 37.0 °F 76% 29.80 in 10.0 mi WNW 18.4 mph 26.5 mph N/A   Overcast
10:56 PM 43.0 °F 36.8 °F 35.1 °F 74% 29.81 in 10.0 mi NW 11.5 mph - N/A   Clear
11:56 PM 42.1 °F 36.1 °F 35.1 °F 76% 29.80 in 10.0 mi NW 10.4 mph - N/A   Clear